Regional Weather Roundup
Issued by NWS Jackson, KY

Home | Current Version | Previous Version | Graphics & Text | Print | Product List | Glossary On
Versions: 1 2 3 4 5 6 7 8 9 10 11 12 13 14 15 16 17 18 19 20 21 22 23 24 25 26 27
000
ASUS43 KJKL 241110
RWRJKL

EAST KENTUCKY HOURLY WEATHER ROUNDUP
NATIONAL WEATHER SERVICE JACKSON KY
700 AM EDT SAT SEP 24 2016

NOTE: "FAIR" INDICATES FEW OR NO CLOUDS BELOW 12,000 FEET WITH
NO SIGNIFICANT WEATHER AND/OR OBSTRUCTIONS TO VISIBILITY.

* THESE REPORTS ARE NOT UNDER NWS QUALITY CONTROL AND MAY NOT
  REPORT WEATHER SUCH AS PRECIPITATION AND FOG.

KYZ079-080-083-085-087-088-110-112-115-119-120-241200
...EASTERN KENTUCKY...

CITY           SKY/WX    TMP DP  RH WIND       PRES   REMARKS
JACKSON        CLOUDY    66  63  90 CALM      30.13R
LONDON         CLEAR     61  58  90 CALM      30.13R
SOMERSET*      CLEAR     61  61 100 CALM      30.13R
MONTICELLO*    PTCLDY    59  58  96 W9        30.14R
WILLIAMSBURG*    N/A     59  59 100 CALM      30.14R VSB 3/4
MIDDLESBORO*   FOG       61  61 100 CALM      30.15R VSB 1/2
HARLAN APT*    CLOUDY    63  61  94 CALM      30.16R VSB 1/4
PIKE CO APT*     N/A     66  66  98 S5        30.13R
BIG SANDY APT* CLOUDY    68  66  92 CALM      30.12R
MOREHEAD APT*  CLOUDY    64  63  94 S3        30.13R
ASHLAND*       CLOUDY    66  64  94 W3        30.08R
$$

KYZ035-036-041-042-044-050-067-078-099-241200
...CENTRAL KENTUCKY...

CITY           SKY/WX    TMP DP  RH WIND       PRES   REMARKS
MT STERLING*   CLEAR     63  63 100 CALM      30.13R FOG
FLEMING/MASON* CLEAR     62  61  96 CALM      30.13R FOG
DANVILLE*      CLEAR     63  61  94 CALM      30.12S
LEXINGTON      CLEAR     65  62  90 CALM      30.12R
FRANKFORT      CLEAR     65  62  90 CALM      30.10R
LOUISVILLE     CLEAR     71  66  84 CALM      30.09R
LEBANON*         N/A     64  64 100 CALM      30.11R FOG
GLASGOW*       CLEAR    N/A N/A N/A CALM      30.11R FOG
BOWLING GREEN  CLOUDY    64  63  96 CALM      30.11R FOG
$$

KYZ091>093-OHZ055-061-077-WVZ005-015-034-035-042-241200
...SOUTHERN OHIO/WEST VIRGINIA...

CITY           SKY/WX    TMP DP  RH WIND       PRES   REMARKS
COVINGTON      CLEAR     69  66  90 NE7       30.12R
COLUMBUS       CLOUDY    68  67  96 N5        30.12R FOG
DAYTON         CLOUDY    68  65  90 NE7       30.15R
WILMINGTON     PTCLDY    67  66  97 NE7       30.13R FOG
HUNTINGTON     CLOUDY    66  63  90 CALM      30.10R
CHARLESTON     PTCLDY    63  60  90 N3        30.10R
PINEVILLE*     PTCLDY    60  58  90 MISG      30.21R
BECKLEY        CLEAR     60  57  89 CALM      30.18R
BLUEFIELD      CLEAR     63  57  81 W3        30.20R
LOGAN CO APT*    N/A     64  64 100 CALM      30.13R
$$

VAZ002-007-008-TNZ017-027-036-066-071-241200
...SOUTHWEST VIRGINIA/EAST TENNESSEE...

CITY           SKY/WX    TMP DP  RH WIND       PRES   REMARKS
WISE*          CLEAR     63  61  94 CALM      30.21R
JONESVILLE*      N/A     59  59 100 CALM      30.17R
ABINGDON*      CLEAR     61  60  98 CALM      30.17S
BRISTOL        CLEAR     61  60  97 CALM      30.15R
MORRISTOWN*    SUNNY     64  63  94 CALM      30.12R
SEVIERVILLE*   SUNNY     59  57  94 CALM      30.11R
KNOXVILLE      CLEAR     65  60  84 NE3       30.10R
OAK RIDGE      CLEAR     65  63  93 CALM      30.12R
CROSSVILLE     CLEAR     61  59  93 CALM      30.16R
NASHVILLE      CLEAR     67  64  90 CALM      30.10R
$$

...KEY TO REMARKS...
VSB - VISIBILITY IN MILES
WCI - WIND CHILL INDEX
HX  - HEAT INDEX

$$




USA.gov is the U.S. government's official web portal to all federal, state and local government web resources and services.